Regional Weather Roundup
Issued by NWS Grand Forks, ND

Home | Current Version | Previous Version | Graphics & Text | Print | Product List | Glossary On
Versions: 1 2 3 4 5 6 7 8 9 10 11 12 13 14 15 16 17 18 19 20 21 22 23 24 25 26 27 28 29 30 31 32 33 34 35 36 37 38 39 40 41 42 43 44 45 46 47 48 49 50
000
ASUS43 KFGF 031110
RWRFGF
PRAIRIE TO PINES  WEATHER ROUNDUP
NATIONAL WEATHER SERVICE EASTERN NORTH DAKOTA/GRAND FORKS ND
600 AM CDT THU SEP 03 2015

 **SATELLITE DATA USED TO AUGMENT SKY COVER AT AUTOMATED STATIONS**
 *****  WEATHER ACROSS EASTERN NORTH DAKOTA  *****

CITY           SKY/WX    TMP DP  RH WIND       PRES   REMARKS
GRAND FORKS    CLOUDY    70  68  93 SE14      29.77F FOG
GRAND FRKS AFB CLOUDY    70  70 100 SE10      29.78R FOG
GRAND FRKS NWS   N/A     68 N/A N/A SE10        N/A
DEVILS LAKE    CLOUDY    73  66  78 SE15G21   29.73S
FARGO          CLOUDY    73  69  87 SE17G26   29.79R
WAHPETON ARPT  CLOUDY    70  66  88 SE12G18   29.81S
$$

 ***** WEATHER ACROSS CENTRAL AND WESTERN NORTH DAKOTA  *****

CITY           SKY/WX    TMP DP  RH WIND       PRES   REMARKS
BISMARCK       CLEAR     67  67 100 E10       29.68S FOG
MINOT          FOG       66  64  93 E3        29.66R VSB 1/4
JAMESTOWN      CLOUDY    73  71  93 SE12G22   29.75R FOG
MINOT AFB      PTCLDY    64  64 100 SE5       29.64S FOG
GARRISON         N/A     70  31  23 E7        29.66F
WILLISTON      PTCLDY    66  55  67 N8        29.64F
DICKINSON      CLEAR     65  58  78 S12       29.66S
HETTINGER      CLEAR     53  50  89 CALM      29.72R
$$

 *****  OTHER AIRPORT OBSERVATIONS IN OUR AREA  *****

CITY           SKY/WX    TMP DP  RH WIND       PRES   REMARKS
WALHALLA       FAIR      70  70 100 MISG      29.75S
GRAFTON AIRPOR CLOUDY    70  70 100 SE13      29.77F
VALLEY CITY AR FOG       72  72 100 SE14      29.77S VSB 3/4
CANDO          NOT AVBL
CAVALIER APRT  CLOUDY    70  68  94 S13G22    29.75F FOG
GWINNER        CLOUDY    73  73 100 SE14      29.78S
SHEYENNE NWR     N/A     71  70  97 SE12      29.95S
ROLLA          CLOUDY    72  72 100 S13G18    29.74S FOG
 ***** THE ABOVE OBSERVATIONS ARE NON NWS ARE NOT QUALITY
       CONTROLLED AND MAY MIS-REPORT RAIN FOR SNOW...
$$

  *****  WEATHER ACROSS NORTHERN MINNESOTA  *****

CITY           SKY/WX    TMP DP  RH WIND       PRES   REMARKS
FLAG ISLAND    CLEAR     68  64  88 SE13      29.86S
WARROAD        CLEAR     66  63  88 SE8       29.86S
ROSEAU         CLEAR     66  61  82 SE9       29.84S
HALLOCK        CLOUDY    68  64  88 SE13      29.77F
THF RVR FALLS  CLOUDY    66  66 100 SE10      29.83S
BAUDETTE       CLOUDY    63  62  97 SE10      29.89S
WASKISH        CLOUDY    63  63 100 SE6       29.90S FOG
CROOKSTON      CLOUDY    72  68  88 S13       29.81S
STEPHEN NDAWN    N/A     68  66  94 SE12        N/A
GREENBUSH NDAW   N/A     66  64  94 SE8         N/A
$$
  *****  WEATHER ACROSS CENTRAL AND WEST MINNESOTA  *****

CITY           SKY/WX    TMP DP  RH WIND       PRES   REMARKS
FOSSTON        PTCLDY    66  64  94 SE13      29.85F
BEMIDJI        CLOUDY    65  64  99 SE10      29.90S FOG
PARK RAPIDS    CLOUDY    68  64  87 SE8       29.90S
ELBOW LAKE     CLOUDY    68  68  99 SE9       29.84S FOG
WADENA         CLOUDY    68  64  88 SE9       29.89R
DETROIT LAKES  CLOUDY    70  66  88 SE14      29.87S
MOORHEAD       CLOUDY    72  70  94 SE12      29.80S FOG
FERGUS FALLS   CLOUDY    70  70 100 SE12G17   29.83R
MORRIS MN      FOG       70  70 100 SE12      29.83S VSB 1/2
STAPLES        CLOUDY    66  64  94 E5        29.90S
$$
  *****  WEATHER ELSEWHERE ACROSS MINNESOTA  *****

CITY           SKY/WX    TMP DP  RH WIND       PRES   REMARKS
DULUTH         FOG       61  60  97 E10       29.97S VSB 1/4
INTRNTL FALLS  CLOUDY    62  62 100 SE3       29.93S
ELY            FOG       57  55  94 CALM      29.99S VSB 1/4
CLOQUET        FOG       61  59  94 E8        29.97R VSB 3/4
WHEATON        CLOUDY    68  68 100 SE13      29.83S FOG
BRAINERD       CLOUDY    66  64  93 VRB5      29.92S
HIBBING        FOG       61  60  97 E5        29.96F VSB 1
ALEXANDRIA     CLOUDY    67  67 100 SE9       29.89S FOG
SAINT CLOUD    CLOUDY    65  64  97 E5        29.90S
MINNEAPOLIS    CLOUDY    68  66  93 E9        29.89F
$$

  *****  WEATHER ACROSS SOUTH DAKOTA  *****

CITY           SKY/WX    TMP DP  RH WIND       PRES   REMARKS
SIOUX FALLS    CLEAR     66  64  93 CALM      29.82S
BROOKINGS      CLEAR     70  64  83 SE5       29.85R
WATERTOWN      CLEAR     70  67  90 SE12      29.81F
HURON          CLEAR     70  68  93 SE7       29.76R
SISSETON         N/A     71  71 100 S12       29.79S
ABERDEEN       CLEAR     71  68  90 S9        29.74S
MITCHELL       CLEAR     69  68  96 SE8       29.77S
PIERRE         CLEAR     68  61  78 S7        29.72R
MOBRIDGE       CLEAR     68  32  26 SE9       29.68R
RAPID CITY     PTCLDY    60  47  61 SE3       29.79R
$$

  *****  SOME WEATHER IN NEARBY STATES *****

CITY           SKY/WX    TMP DP  RH WIND       PRES   REMARKS
GLASGOW MT     CLEAR     65  36  34 N14       29.74F
GREAT FALLS MT PTCLDY    53  37  54 NE7       29.89R
CHEYENNE WY    MOCLDY    67  43  41 W13       30.07R
SCOTTSBLUFF NE PTCLDY    60  52  74 N6        29.91S
OMAHA NE       PTCLDY    74  69  85 S13       29.84F
DES MOINES IA  PTCLDY    73  68  84 S7        29.90S
DAVENPORT IA   CLEAR     72  68  87 S7        29.95S
CHICAGO IL     PTCLDY    73  68  84 SW7       29.95S
EAU CLAIRE WI  FOG       67  66  97 NE3       29.92R VSB 1/4
LA CROSSE WI   CLEAR     71  69  93 CALM      29.90S FOG
$$

  *****  SOME NATIONAL WEATHER *****

CITY           SKY/WX    TMP DP  RH WIND       PRES   REMARKS
LA GUARDIA NY  CLEAR     77  65  66 N3        29.86R
RALEIGH NC     FOG       69  68  96 CALM      29.96R VSB 1/8
ATLANTA GA     CLOUDY    75  70  84 NW6       30.00S
NEW ORLEANS LA CLOUDY    77  72  84 CALM      29.98R
OKLAHOMA CITY  PTCLDY    67  64  90 S6        29.96R
ALBUQUERQUE NM CLOUDY    67  48  50 S5        30.15F
SALT LAKE CITY PTCLDY    77  40  26 S20G28    29.90R
LOS ANGELES CA CLOUDY    68  60  75 CALM      29.91F
BOISE ID       MOCLDY    58  43  57 NW9       29.86R
SEATTLE WA     CLOUDY    53  50  89 S5        29.98R
$$

*** WEATHER ACROSS MANITOBA...SASKATCHEWAN AND ONTARIO ***
                ***ONTARIO***

CITY           SKY/WX    TMP DP  RH WIND       PRES   REMARKS
GERALDTON      CLEAR     50  50 100 CALM      30.02S FOG
THUNDER BAY    CLEAR     48  48 100 W5        30.00S
SIOUX LOOKOUT  PTCLDY    61  59  94 S5        29.98R
TORONTO        MOCLDY    72  70  94 N6        29.94R FOG
BIG TROUT LK   PTCLDY    66  61  82 SW8       29.83S
PICKLE LAKE    PTCLDY    61  54  77 SW3       29.98
DRYDEN         CLEAR     63  61  94 S8        29.95R
KENORA         PTCLDY    64  64 100 S7        29.91R
$$
                *** MANITOBA***

CITY           SKY/WX    TMP DP  RH WIND       PRES   REMARKS
BRANDON        MOCLDY    72  70  94 E6        29.70S
DAUPHIN        CLEAR     63  63 100 SE7       29.67S
ISLAND LAKE    NOT AVBL
PILOT MOUND      N/A     72  70  94 S15G22      N/A
THE PAS        MOCLDY    63  57  82 SE7       29.63F
THOMPSON       NOT AVBL
WINNIPEG       CLOUDY    72  68  88 S17       29.77S
LYNN LAKE      CLOUDY    57  55  94 SE9       29.70S
CHURCHILL      MOCLDY    46  45  93 VRB2      29.78S
$$
                ***SASKATCHEWAN***

CITY           SKY/WX    TMP DP  RH WIND       PRES   REMARKS
ESTEVAN        MOCLDY    59  57  94 NW5       29.69R
KINDERSLEY     CLOUDY    46  41  81 NW6       29.83R
LLOYDMINSTER   MOCLDY    45  43  93 W12       29.82R
PRINCE ALBERT  NOT AVBL
REGINA         PTCLDY    55  46  71 N7        29.74F
YORKTON        MOCLDY    61  54  77 N8        29.71S
N. BATTLEFORD  CLEAR     45  43  93 SW6       29.83R
LA RONGE       PTCLDY    54  52  94 S6        29.62R
SASKATOON      CLOUDY    55  45  67 NW13      29.78R
SWIFT CURRENT  PTCLDY    52  46  82 NW9       29.82R
$$
NOTE: THESE ARE AUTOMATED STATIONS WITH LIMITED QUALITY CONTROL
      "FAIR" INDICATES FEW OR NO CLOUDS BELOW 12,000 FEET WITH NO
      SIGNIFICANT WEATHER AND/OR OBSTRUCTIONS TO VISIBILITY.
      SKY/WX - SKY CONDITION AND SIGNIFICANT WEATHER.
      TMP - AIR TEMPERATURE.    DP   - DEWPOINT TEMPERATURE.
      RH  - RELATIVE HUMIDITY.  PRES - PRESSURE.
      HX  - HEAT INDEX.         WCI  - WIND CHILL INDEX.
$



USA.gov is the U.S. government's official web portal to all federal, state and local government web resources and services.